Location: Geçmen
(36.6752°N, 29.9864°E)
Time: 21:18:01
(UTC+00:00)

Daily predictions for brighter satellites

Satellite Brightness Start Highest point End
(mag) Time Altitude Azimuth Time Altitude Azimuth Time Altitude Azimuth
Cosmos 2061 Rocket 4.3 15:50:57 10° N 15:57:01 45° ENE 16:02:57 10° SSE
Cosmos 1125 Rocket 4.3 15:56:44 10° N 16:01:11 28° ENE 16:05:38 10° ESE
ATLAS 5 CENTAUR R/B 1.9 15:56:53 10° NNW 16:01:33 83° ENE 16:07:20 10° SSE
CZ-4 R/B 4.4 15:58:51 10° SSE 16:02:43 54° ENE 16:06:36 10° N
SeaSat 1 2.5 16:01:17 10° SE 16:06:05 59° ENE 16:10:53 10° NNW
YAOGAN 1 3.0 16:02:34 10° SE 16:06:32 39° ENE 16:10:30 10° N
Cosmos 1315 Rocket 2.6 16:02:53 10° N 16:06:41 72° E 16:10:28 10° SSE
Cosmos 1455 Rocket 4.4 16:06:09 10° NNE 16:09:10 18° ENE 16:12:10 10° ESE
SEDSat Delta rocket 3.9 16:05:18 10° WSW 16:09:14 38° S 16:12:59 10° ESE
USA 234 3.3 16:02:52 10° ESE 16:09:20 69° NE 16:15:51 10° NW
Spot 4 Rocket 4.5 16:06:53 10° SE 16:11:33 38° ENE 16:16:15 10° N
SAR-Lupe-4 3.5 16:10:34 10° SSE 16:14:06 68° ENE 16:17:39 10° N
BREEZE-M DEB (TANK) 3.7 16:11:48 10° S 16:14:25 27° ESE 16:20:13 10° ENE
Radarsat Rocket 4.3 16:09:58 10° SE 16:15:26 44° ENE 16:21:10 10° N
Cosmos 2344 4.4 16:08:15 10° S 16:15:34 30° ESE 16:21:46 10° NE
Atlas Centaur 2 3.4 16:08:28 10° WSW 16:16:11 52° S 16:22:52 10° ESE
ARIANE 5 R/B 3.3 16:12:02 10° S 16:17:05 59° WSW 16:22:06 10° NNW
FALCON 9 R/B 4.4 16:11:30 10° WSW 16:17:37 39° S 16:37:38 10° ESE
PSLV R/B 4.2 16:14:12 10° SE 16:17:50 31° ENE 16:21:27 10° N
Cosmos 2221 Rocket 3.5 16:14:34 10° S 16:18:59 75° E 16:23:29 10° N
Cosmos 773 Rocket 4.5 16:14:48 10° S 16:19:38 39° E 16:24:31 10° NE
USA 306 3.0 16:21:53 10° N 16:23:10 14° NNE 16:23:21 14° NNE
COSMO-SKYMED 1 2.3 16:19:06 10° NNE 16:23:13 73° ESE 16:27:18 10° S
Okean 1 Rocket 3.1 16:19:12 10° N 16:23:32 58° E 16:27:48 10° SSE
Okean 2 Rocket 3.0 16:21:18 10° N 16:25:40 75° E 16:30:00 10° SSE
CZ-2D R/B 3.2 16:27:27 10° SSE 16:31:16 65° ENE 16:35:12 10° N
Cosmos 2297 Rocket 2.3 16:26:34 10° SSW 16:32:14 84° WNW 16:37:56 10° NNE
Cosmos 836 Rocket 4.4 16:31:39 10° S 16:36:52 73° ESE 16:42:09 10° NNE
Meteor 2-1 Rocket 4.3 16:32:32 10° N 16:38:24 90° NNE 16:44:19 10° S
Sich 1 Rocket 3.6 16:34:12 10° N 16:38:47 84° E 16:43:19 10° S
Cosmos 1025 Rocket 4.3 16:35:42 10° SSW 16:39:48 44° W 16:43:56 10° N
Resurs 01 Rocket 1.9 16:37:56 10° SE 16:42:05 44° ENE 16:46:16 10° N
Haruka 4.0 16:34:03 10° WSW 16:42:57 43° S 16:45:33 18° ESE
Tiangong -1.9 16:41:56 10° W 16:45:04 61° NNW 16:46:31 28° NE
Resurs 1-3 4.0 16:41:02 10° S 16:45:18 65° W 16:49:35 10° NNW
Celestis-02/Orion 38 4.5 16:46:17 10° SSE 16:51:22 80° ENE 16:56:35 10° NNW
CRYOSAT 2 4.3 16:55:04 10° N 16:59:58 83° E 17:04:50 10° S
Cosmos 2263 Rocket 2.6 16:57:14 10° S 17:02:26 39° ESE 17:04:53 26° ENE
Cosmos 1980 3.6 17:01:24 10° NNW 17:07:04 76° ENE 17:12:41 10° SSE
Helios 1A Rocket 2.1 17:06:13 36° NNE 17:07:24 78° ESE 17:10:39 10° S
Meteor 1-27 4.2 17:01:46 10° N 17:07:35 78° E 17:13:25 10° SSE
COSMOS 2428 3.9 17:02:22 10° NW 17:07:46 45° WSW 17:13:08 10° S
SJ-6B 2.3 17:12:29 68° ENE 17:12:29 68° ENE 17:15:49 10° N
Cosmos 2237 Rocket 2.1 17:06:46 10° NNW 17:12:29 78° ENE 17:18:09 10° SSE
Cosmos 2285 Rocket 4.2 17:07:34 10° NNW 17:13:59 77° WSW 17:20:20 10° S
CARTOSAT-1 4.3 17:10:26 10° S 17:14:31 52° W 17:18:38 10° NNW
Cosmos 1816 Rocket 4.3 17:10:43 10° S 17:16:46 69° E 17:22:55 10° NNE
Cosmos 44 Rocket 4.3 17:14:28 10° SW 17:19:08 46° NW 17:23:36 12° NNE
GOES 2 Rocket 4.4 17:16:32 10° SW 17:20:00 25° S 17:20:24 25° SSE
Delta 2 Rocket 3.3 17:19:29 10° W 17:22:00 53° WSW 17:22:00 53° WSW
Cosmos 2034 Rocket 4.1 17:21:37 10° N 17:27:35 49° E 17:28:50 43° ESE
Cosmos 1072 Rocket 4.4 17:22:43 10° N 17:28:58 87° E 17:35:06 10° S
Cosmos 2227 Rocket 2.5 17:25:50 10° SSW 17:31:25 65° WNW 17:36:55 11° NNE
SL-16 R/B 3.5 17:32:26 10° N 17:35:23 25° NNE 17:35:23 25° NNE
Cosmos 1975 Rocket 4.3 17:37:47 10° SSW 17:41:53 40° W 17:45:59 10° N
BREEZE-M DEB (TANK) 4.0 17:45:23 10° NW 17:50:15 86° SW 17:55:26 33° SE
Cosmos 1346 Rocket 4.4 17:48:58 10° SW 17:51:24 30° WSW 17:51:24 30° WSW
Gbstr 26 Del rocket 4.3 17:46:36 10° SW 17:53:20 75° NW 17:55:41 47° NE
Cosmos 1464 Rocket 4.4 17:49:48 10° NNW 17:56:03 62° W 18:02:11 10° S
BREEZE-M DEB (TANK) 4.4 17:39:06 10° SW 17:57:10 63° SE 17:57:36 62° SE
SPOT 5 4.2 18:00:21 31° NNW 18:00:21 31° NNW 18:02:55 10° NNW
Cosmos 2228 4.3 17:56:38 10° NNW 18:00:31 38° W 18:00:41 38° W
Atlas Centaur 2 3.1 17:57:33 10° W 18:04:34 45° SSW 18:04:56 44° S
H-2A R/B 4.1 17:29:22 10° W 18:09:52 54° SSW 18:11:34 47° SSE
CSL-04 Rocket 4.3 18:11:33 47° NW 18:11:33 47° NW 18:15:22 10° NNW
BREEZE-M (TANK) 3.8 18:07:50 10° NW 18:11:49 89° SW 18:12:02 85° SE
Cosmos 2344 4.3 18:21:55 10° WSW 18:29:38 45° NW 18:32:55 29° N
NOSS 3-4 (A) 4.5 18:29:40 10° NW 18:36:44 55° WSW 18:37:51 51° SW
NOSS 3-4 (C) 4.4 18:29:56 10° NW 18:37:01 56° WSW 18:38:02 53° SW
Cosmos 2263 Rocket 4.0 18:41:39 10° WSW 18:46:24 27° WNW 18:46:40 27° NW
